Regional Weather Roundup
Issued by NWS

Home | Current Version | Previous Version | Graphics & Text | Print | Product List | Glossary On
Versions: 1 2 3 4 5 6 7 8 9 10 11 12 13 14 15 16 17 18 19 20 21 22 23 24 25 26 27 28 29 30 31 32 33 34 35 36 37 38 39 40 41 42 43 44 45 46 47 48 49 50
000
ASUS45 KBOI 021010
RWRID

IDAHO REGIONAL WEATHER ROUNDUP
NATIONAL WEATHER SERVICE BOISE ID
400 AM MDT WED SEP 02 2015

NOTE: "FAIR" INDICATES FEW OR NO CLOUDS BELOW 12000 FEET
WITH NO SIGNIFICANT WEATHER AND/OR OBSTRUCTIONS TO VISIBILITY

IDZ012-014-021100-
SOUTHWEST IDAHO


CITY           SKY/WX    TMP DP  RH WIND       PRES   REMARKS
BOISE          FAIR      66  37  34 SE12      29.77R
CALDWELL       FAIR      57  39  51 S3        29.78R
MOUNTAIN HOME  FAIR      60  38  44 E5        29.80R
$$

IDZ016-017-021100-
SOUTHCENTRAL IDAHO


CITY           SKY/WX    TMP DP  RH WIND       PRES   REMARKS
BURLEY         FAIR      54  43  66 SW7       29.86R
JEROME         FAIR      66  34  30 SE8       29.87R
TWIN FALLS     FAIR      71  29  21 S15       29.86S
$$

IDZ019>023-021100-
SOUTHEAST IDAHO


CITY           SKY/WX    TMP DP  RH WIND       PRES   REMARKS
IDAHO FALLS    CLEAR     64  41  42 SW7       29.90R
POCATELLO      CLEAR     70  39  32 SW12      29.88R
REXBURG        CLEAR     65  39  38 S10       29.90S
$$

IDZ006-010-011-018-031-032-021100-
CENTRAL IDAHO MOUNTAINS


CITY           SKY/WX    TMP DP  RH WIND       PRES   REMARKS
MCCALL         FAIR      49  40  71 SE3       29.86R
HAILEY         FAIR      52  34  50 NW10      29.97R
STANLEY          N/A     41  28  60 VRB3      29.99R
SALMON         FAIR      48  36  61 CALM      29.81R
CHALLIS        FAIR      52  28  39 CALM      29.89R
$$

IDZ002-004-006-007-026-021100-
NORTHERN IDAHO


CITY           SKY/WX    TMP DP  RH WIND       PRES   REMARKS
LEWISTON       FAIR      68  43  40 NW3       29.74S
LOWELL           N/A     55  51  86 CALM      29.80R
COEUR D`ALENE  FAIR      61  41  48 S6        29.74S
MULLAN PASS    CLOUDY    49  33  54 VRB5      29.88S
$$



USA.gov is the U.S. government's official web portal to all federal, state and local government web resources and services.